Back to catalog

STARLINK-34068

AliveCommunicationsVLEO
NORAD 63914·PAYLOAD·🇺🇸 United States

Launched May 10, 2025 from Cape Canaveral Space Force Station

Loading…

Next Passes (next 24 hours)

TLE

FreshSource: CelesTrak SupGP

Epoch: Sep 14, 2026, 14:15 UTC

1 63914C 25095AA  26257.59423611 -.00002298  00000+0 -83240-4 0  2577
2 63914  43.0010 189.2219 0001481 267.8513 325.4969 15.27574084    13

Track STARLINK-34068 in real time with AllMySat

Download on the App Store